DW4596 Weather Reports


time (UTC)temp
F
wind
direction
speed
knots
gust
knots
rain 1hr
in
rain 24hr
in
rain mn
in
humidity
%
barometer
mb
20260507040031 43 197 7.8 0.0 0.00 0.00 0.01 81 1008.6
20260507034631 44 192 7.8 0.0 0.00 0.00 0.01 82 1008.7
20260507033039 44 205 7.8 0.0 0.00 0.00 0.01 82 1008.8
20260507031529 44 219 7.0 0.0 0.00 0.00 0.01 83 1008.8
20260507030029 43 218 6.1 0.0 0.00 0.00 0.01 83 1008.9
20260507024629 43 210 8.7 0.0 0.00 0.00 0.01 83 1008.9
20260507023036 43 206 8.7 0.0 0.00 0.00 0.01 83 1009.0
20260507021533 43 214 8.7 0.0 0.00 0.00 0.01 83 1009.1
20260507020031 43 214 9.6 0.0 0.00 0.00 0.01 83 1009.2
20260507014629 44 208 5.2 0.0 0.00 0.00 0.01 82 1009.1
20260507013029 44 198 7.0 0.0 0.00 0.00 0.01 82 1009.2
20260507011534 44 209 9.6 0.0 0.00 0.00 0.01 83 1009.3
20260507010027 44 197 7.0 0.0 0.00 0.00 0.01 83 1009.1
20260507004625 44 218 7.8 0.0 0.00 0.00 0.01 84 1009.0
20260507003026 44 197 7.8 0.0 0.00 0.00 0.01 84 1009.0
20260507001524 44 209 8.7 0.0 0.00 0.00 0.01 84 1008.8
20260507000022 45 238 6.1 0.0 0.00 0.00 0.00 84 1008.6
20260506234620 45 212 4.3 0.0 0.00 0.00 0.00 84 1008.2
20260506233022 45 230 4.3 0.0 0.00 0.00 0.00 84 1008.2
20260506231520 45 228 5.2 0.0 0.00 0.00 0.00 84 1008.1
20260506230019 45 333 7.0 0.0 0.00 0.00 0.00 84 1008.1
20260506224619 45 236 7.0 0.0 0.00 0.00 0.00 84 1008.1
20260506223019 45 333 7.0 0.0 0.00 0.00 0.00 84 1008.1
20260506221518 46 240 5.2 0.0 0.00 0.00 0.00 83 1008.1
20260506220030 46 211 3.5 0.0 0.00 0.00 0.00 82 1008.1
20260506214617 46 200 2.6 0.0 0.00 0.00 0.00 83 1007.9
20260506213028 46 211 2.6 0.0 0.00 0.00 0.00 83 1007.9
20260506211521 46 333 3.5 0.0 0.00 0.00 0.00 83 1007.8
20260506210023 45 182 2.6 0.0 0.00 0.00 0.00 83 1007.7
20260506204622 46 333 0.9 0.0 0.00 0.00 0.00 84 1007.9
20260506203028 46 333 0.9 0.0 0.00 0.00 0.00 84 1007.8
20260506201523 45 51 0.0 0.0 0.00 0.00 0.00 84 1007.8
20260506200023 45 51 0.9 0.0 0.00 0.00 0.00 84 1007.8
20260506194622 45 76 3.5 0.0 0.00 0.00 0.00 84 1007.7
20260506193019 45 73 2.6 0.0 0.00 0.00 0.00 84 1007.7
20260506191517 45 24 0.0 0.0 0.00 0.00 0.00 84 1007.9
20260506190023 44 25 1.7 0.0 0.00 0.00 0.00 84 1008.0
20260506184614 44 24 3.5 0.0 0.00 0.00 0.00 83 1007.8
20260506183015 44 359 4.3 0.0 0.00 0.00 0.00 83 1007.9
20260506181516 44 346 4.3 0.0 0.00 0.00 0.00 82 1007.9
20260506180013 44 17 4.3 0.0 0.00 0.00 0.00 82 1007.8
20260506174613 44 38 4.3 0.0 0.00 0.00 0.00 81 1007.7
20260506173013 44 356 4.3 0.0 0.00 0.00 0.00 81 1007.6
20260506171517 44 356 3.5 0.0 0.00 0.00 0.00 80 1007.5
20260506170011 44 3 3.5 0.0 0.00 0.00 0.00 79 1007.5
20260506164610 43 69 4.3 0.0 0.00 0.00 0.00 78 1007.6
20260506163016 43 42 5.2 0.0 0.00 0.00 0.00 78 1007.7
20260506161514 43 16 6.1 0.0 0.00 0.00 0.00 76 1007.8
20260506160014 43 7 6.1 0.0 0.00 0.00 1.22 76 1008.0
20260506154614 42 352 5.2 0.0 0.00 0.00 1.21 73 1008.2
20260506153011 42 346 6.1 0.0 0.00 0.00 1.21 72 1008.1
20260506151509 42 352 6.1 0.0 0.00 0.00 1.20 72 1008.0
20260506150008 42 13 5.2 0.0 0.00 0.00 1.19 71 1007.9
20260506144610 42 357 4.3 0.0 0.00 0.00 1.17 71 1007.8
20260506143009 43 352 4.3 0.0 0.00 0.00 1.17 70 1007.8
20260506141508 42 19 4.3 0.0 0.00 0.00 1.15 70 1007.9
20260506140009 42 19 3.5 0.0 0.00 0.00 1.13 70 1008.0
20260506134607 42 17 3.5 0.0 0.00 0.00 1.12 72 1007.8
20260506133010 42 26 4.3 0.0 0.00 0.00 1.11 72 1007.7
20260506131509 42 15 3.5 0.0 0.00 0.00 1.10 71 1007.9
20260506130013 42 17 3.5 0.0 0.00 0.00 1.08 72 1008.0
20260506124610 42 23 2.6 0.0 0.00 0.00 1.05 72 1007.8
20260506123009 42 28 3.5 0.0 0.00 0.00 1.05 73 1007.8
20260506121508 42 38 2.6 0.0 0.00 0.00 1.03 73 1007.9
20260506120020 42 27 2.6 0.0 0.00 0.00 1.02 73 1007.9
20260506114609 42 36 1.7 0.0 0.00 0.00 0.99 74 1008.0
20260506113010 42 30 2.6 0.0 0.00 0.00 0.99 74 1008.1
20260506111509 42 7 3.5 0.0 0.00 0.00 0.97 74 1008.3
20260506110012 42 13 4.3 0.0 0.00 0.00 0.95 73 1008.1
20260506104606 42 5 1.7 0.0 0.00 0.00 0.92 73 1008.1
20260506103010 42 5 2.6 0.0 0.00 0.00 0.91 73 1007.9
20260506101510 42 333 2.6 0.0 0.00 0.00 0.89 74 1008.2
20260506100006 43 349 2.6 0.0 0.00 0.00 0.87 74 1008.0
20260506094615 43 348 1.7 0.0 0.00 0.00 0.82 73 1007.9
20260506093007 43 348 0.9 0.0 0.00 0.00 0.82 73 1007.8
20260506091508 43 346 2.6 0.0 0.00 0.00 0.80 74 1007.6
20260506090014 43 328 2.6 0.0 0.00 0.00 0.78 74 1007.7
20260506084604 43 338 2.6 0.0 0.00 0.00 0.74 74 1008.1
20260506083005 43 173 1.7 0.0 0.00 0.00 0.74 74 1008.1
20260506081504 43 151 3.5 0.0 0.00 0.00 0.72 74 1008.0
20260506073004 43 177 2.6 0.0 0.00 0.00 0.68 75 1007.8
20260506071504 44 167 5.2 0.0 0.00 0.00 0.67 75 1007.6
20260506061502 44 162 2.6 0.0 0.00 0.00 0.56 77 1007.9
20260506044601 45 190 3.5 0.0 0.00 0.00 0.43 79 1008.5
20260506043001 45 186 4.3 0.0 0.00 0.00 0.43 79 1008.5
20260506041501 45 171 4.3 0.0 0.00 0.00 0.43 79 1008.2